Wetbulb
76.31 75.89 76.96 73.66 63.99 63.19 58.00 57.49 63.73 62.93 62.89 65.94 66.33 65.85 65.02 66.25 63.45 59.05 72.33 74.22 73.87 73.69 74.83 76.21 77.73 77.10 77.32 77.00 77.12 77.69 77.45 77.73 78.04 78.21 77.95 77.15 76.66 75.87 75.18 76.07 76.14 75.85 76.30 76.34 76.26 76.40 76.20 76.00 75.73
76.75 77.11 74.48 69.75 60.65 53.98 55.86 59.88 61.64 63.96 65.46 66.88 66.47 66.26 65.16 63.58 69.07 69.65 70.36 73.31 73.57 74.16 74.32 75.03 78.22 77.85 77.50 78.09 77.81 78.08 77.72 77.46 77.62 77.78 77.38 76.77 76.27 75.48 75.50 76.02 75.89 75.86 75.77 76.21 76.10 76.17 76.10 75.76 75.45
74.63 76.78 69.03 65.10 60.25 55.61 55.43 61.23 63.26 65.12 67.14 66.46 65.21 67.53 66.92 65.23 70.12 70.75 72.39 73.06 74.14 74.69 75.32 76.05 78.17 78.00 77.18 77.38 77.26 77.29 77.34 77.29 77.20 77.20 76.77 76.36 76.27 73.55 75.86 75.83 76.05 75.75 76.02 76.14 76.17 76.23 75.73 75.90 75.87
74.33 72.86 68.97 61.63 57.59 59.96 60.28 61.87 65.14 64.75 66.39 66.09 65.75 64.01 68.78 71.86 71.26 72.06 73.42 74.37 73.77 74.31 75.98 77.28 78.06 77.31 77.12 77.20 77.07 76.96 77.19 77.07 76.77 76.83 76.61 76.20 75.59 74.46 75.94 76.35 76.27 76.50 76.50 76.09 75.90 75.70 75.73 75.48 75.48
73.55 68.97 60.40 58.79 59.49 62.82 64.88 65.13 65.77 64.41 64.70 64.19 65.99 63.66 66.06 70.80 73.28 72.94 73.47 74.02 73.86 75.06 75.70 76.32 78.17 77.39 77.50 77.28 77.07 77.19 76.97 76.97 76.94 76.83 75.95 76.00 74.87 75.09 75.63 76.52 76.06 75.59 75.29 74.98 74.73 74.92 75.42 75.06 74.98
66.84 64.62 59.10 57.12 58.65 63.14 65.03 66.48 65.12 64.41 65.48 64.56 63.87 65.95 66.76 71.60 71.40 72.85 73.82 72.65 74.19 73.97 75.01 75.70 77.36 77.20 77.06 76.77 77.01 76.44 76.86 76.53 76.50 76.06 75.90 74.81 75.37 75.20 74.95 75.65 75.98 75.81 75.76 75.31 74.81 74.81 74.94 75.70 75.12
64.23 63.34 59.14 57.85 59.56 61.42 63.42 67.18 64.24 63.52 64.67 63.94 65.53 63.65 67.71 69.79 71.61 72.48 72.47 72.49 74.42 74.20 74.28 75.40 75.51 76.62 76.74 76.44 76.58 76.33 76.20 75.87 76.11 75.94 75.38 74.94 73.60 73.76 74.17 75.76 76.37 75.50 75.42 74.94 75.08 75.00 75.09 75.59 74.93
65.71 62.53 57.74 60.51 59.23 60.15 65.07 65.94 67.42 66.03 64.09 67.98 67.65 62.19 64.97 69.64 71.96 72.54 72.99 73.06 73.32 71.61 73.88 75.05 76.12 76.33 76.17 75.89 76.77 76.63 76.17 75.62 75.92 75.61 74.84 74.51 73.38 74.58 75.27 76.50 76.29 75.67 75.81 75.14 75.31 75.56 75.64 75.66 75.17
67.80 58.91 56.04 59.16 60.18 61.84 66.25 64.46 67.60 69.18 66.37 66.15 66.52 68.62 70.60 71.99 71.95 71.76 72.04 72.18 72.31 73.43 73.69 73.41 74.84 75.53 77.17 77.15 76.55 76.58 76.25 75.75 75.89 74.95 75.39 74.62 75.31 73.05 75.31 76.40 76.12 75.87 75.87 75.45 74.12 75.91 76.08 75.41 75.76
63.76 59.28 59.18 64.53 64.72 62.93 65.19 65.52 65.83 64.35 64.66 64.08 66.62 70.04 71.32 71.51 71.18 69.92 70.01 70.27 71.46 71.25 72.05 73.25 73.93 75.30 75.55 76.39 76.65 76.61 75.65 75.17 75.22 75.34 74.54 74.76 75.14 74.27 75.89 76.48 76.65 76.20 76.40 75.34 74.70 75.67 75.73 75.75 74.71
64.13 60.98 64.75 65.17 65.93 66.22 65.03 64.55 66.22 64.21 62.08 64.19 65.00 66.82 70.04 70.23 69.97 69.69 69.77 70.01 71.04 72.47 73.83 73.18 75.76 76.59 75.85 75.74 76.59 76.62 76.11 75.44 73.68 75.41 75.10 73.91 74.74 74.38 74.83 75.45 74.98 76.14 76.01 74.90 74.97 74.22 73.98 74.10 74.51
60.71 60.30 63.10 65.84 66.77 65.19 64.56 65.51 64.61 64.59 63.64 66.79 67.61 68.22 69.41 68.96 69.29 69.36 68.89 69.33 70.73 71.32 72.15 74.12 76.01 75.17 74.22 75.74 74.69 74.62 74.71 73.79 72.91 72.78 73.87 73.04 74.34 75.64 74.71 72.63 73.31 73.19 75.32 74.27 75.54 75.72 75.14 73.92 74.62
62.85 64.69 66.33 66.91 66.30 66.15 66.63 64.56 64.56 62.79 64.98 66.30 68.21 67.83 67.57 67.71 68.72 68.60 70.53 71.12 70.81 71.28 72.49 72.80 74.35 75.83 75.72 74.50 75.25 74.10 73.44 73.26 73.09 73.19 72.07 72.69 74.29 74.74 72.38 74.23 72.70 70.46 72.99 74.84 75.59 75.28 73.99 67.30 67.41
61.92 63.38 65.29 65.27 65.96 65.76 64.39 64.98 65.68 64.12 65.91 66.37 66.98 66.71 67.14 68.11 68.05 68.76 69.38 69.92 70.68 71.39 71.84 73.00 73.73 74.95 75.71 74.94 74.83 74.04 73.17 72.56 72.06 72.75 72.52 75.52 75.84 75.04 74.93 73.56 73.33 72.89 75.25 75.35 75.91 76.89 72.28 67.90 70.94
64.21 62.04 61.40 58.78 62.91 64.41 65.84 62.17 61.81 67.13 67.67 65.22 65.91 66.67 66.69 67.09 68.19 67.63 68.85 69.94 70.02 70.65 72.61 72.39 73.39 73.64 74.39 73.90 73.86 74.84 73.60 73.23 71.13 73.25 74.66 75.60 76.37 75.38 74.81 73.51 72.81 75.09 77.93 77.28 76.96 77.07 72.45 72.22 73.09
61.66 62.50 56.00 59.62 64.11 65.38 64.66 57.79 64.11 67.45 65.63 64.77 65.57 66.18 66.31 67.58 68.01 69.07 69.36 70.68 71.23 71.11 71.98 73.06 72.82 72.39 73.39 74.34 74.35 74.84 74.36 72.64 73.12 74.10 73.25 76.35 75.89 77.37 71.92 73.09 73.66 75.69 78.75 78.71 78.08 75.36 74.94 72.27 72.60
58.95 53.44 57.42 60.17 62.85 64.55 63.01 59.70 64.59 67.27 64.38 64.43 65.50 65.38 65.83 66.82 68.63 69.79 69.60 70.47 71.58 72.21 72.65 72.73 73.29 72.02 72.02 71.88 72.68 74.32 73.68 73.61 73.59 75.72 76.70 75.67 75.86 76.69 71.06 70.74 75.68 77.20 75.21 73.02 73.28 74.56 73.17 72.90 68.85
54.52 54.29 56.00 59.11 63.08 62.72 61.85 61.21 64.45 65.96 64.84 64.99 64.35 64.58 66.20 65.86 67.37 69.02 69.48 70.29 71.75 72.31 73.01 73.49 73.12 74.05 73.56 71.62 72.33 74.03 73.99 74.95 74.61 75.55 76.28 75.72 75.86 75.65 69.30 70.10 72.64 70.41 72.42 74.63 76.18 77.52 75.10 72.01 71.41
57.20 55.17 54.47 57.97 62.36 60.13 60.34 61.40 63.15 66.02 65.55 64.62 64.22 65.77 64.51 66.62 69.07 69.12 70.18 70.01 70.68 72.18 72.89 73.35 73.60 73.75 72.62 70.37 70.30 71.62 71.93 73.37 73.66 74.81 76.88 75.58 75.65 77.71 76.69 73.95 69.76 70.81 70.66 74.34 78.04 77.96 75.67 74.15 75.42
55.64 54.44 54.78 57.19 59.53 59.48 59.11 59.02 62.78 65.52 65.58 65.02 65.91 65.09 64.45 65.97 68.26 68.75 70.09 70.28 70.51 72.03 72.62 73.51 73.95 74.07 73.03 69.08 70.63 71.66 74.41 74.34 74.95 74.56 75.45 75.34 77.56 78.51 78.47 71.04 70.17 70.27 71.06 75.78 77.98 78.23 76.04 74.43 74.63
54.14 53.51 54.44 54.49 56.35 57.02 58.24 56.82 57.00 59.41 66.33 66.06 66.15 66.67 66.40 66.98 67.35 69.02 69.16 70.26 71.15 72.01 72.36 73.64 73.89 74.48 74.31 74.34 72.63 76.24 76.14 73.07 70.12 73.51 75.27 77.17 77.95 78.03 77.59 68.56 67.08 69.21 73.46 74.47 78.11 77.47 76.95 74.57 73.53
51.44 56.46 56.33 54.94 53.06 49.57 58.48 49.63 55.68 56.41 55.00 61.28 65.19 65.35 66.45 66.44 67.53 69.12 69.09 69.47 70.68 72.16 72.88 73.99 74.73 74.24 75.26 74.10 73.52 73.99 72.22 67.10 68.97 69.69 75.74 75.58 77.46 78.12 77.66 76.78 75.72 78.56 75.74 76.19 78.74 77.58 77.35 77.06 74.01
52.75 56.71 55.08 55.06 53.28 52.97 54.71 52.62 56.44 56.29 55.00 56.39 64.99 65.69 66.63 67.09 67.64 68.56 68.89 70.59 70.31 72.72 72.68 73.34 74.79 75.04 74.81 76.04 75.84 73.85 72.80 67.64 68.96 70.35 76.18 77.66 78.41 77.20 77.24 76.23 78.62 79.45 78.29 78.16 78.33 77.65 78.81 76.58 75.87
55.87 55.36 54.95 54.59 53.91 48.75 52.78 53.32 54.50 56.28 56.87 60.51 64.17 66.34 67.26 67.45 68.07 69.14 70.16 69.24 70.85 72.51 73.09 73.12 73.82 74.95 75.89 75.94 75.10 75.32 75.97 74.77 73.85 75.24 75.00 75.02 76.39 75.00 77.25 78.37 78.60 79.52 79.15 78.37 78.02 79.27 79.06 78.53 77.55
53.99 52.71 47.50 46.50 47.80 47.73 52.68 51.46 55.67 59.19 60.54 62.48 63.69 65.71 67.86 68.71 67.96 68.52 68.58 68.05 68.84 71.43 72.62 73.12 73.71 74.27 75.56 75.16 74.87 74.72 75.33 76.43 72.80 73.62 70.41 73.37 73.31 73.82 75.34 78.03 78.42 78.07 78.99 78.77 78.77 78.86 79.04 77.82 77.98
51.62 51.82 48.17 43.45 45.19 47.00 54.43 49.03 54.26 61.31 62.02 62.35 63.62 64.93 67.11 68.28 68.90 67.92 68.59 69.83 70.89 70.93 72.15 72.28 73.48 74.17 74.89 75.18 75.33 75.70 76.01 75.50 71.84 71.17 74.55 75.21 75.48 72.79 76.64 77.37 77.96 78.10 78.70 78.37 78.87 78.25 77.77 77.35 77.85
50.79 50.10 53.75 49.27 50.78 47.80 49.94 54.47 57.99 59.91 60.46 62.06 62.76 63.77 64.27 66.59 68.27 68.14 68.99 69.98 70.63 71.59 72.47 72.94 73.63 74.42 74.69 74.73 75.72 75.64 75.95 75.10 75.12 77.33 77.96 74.61 77.54 73.89 75.53 77.42 79.18 78.57 78.52 77.99 79.13 77.17 77.37 77.28 77.97
51.81 54.79 49.64 50.43 45.15 43.60 47.93 51.23 52.68 58.01 59.65 61.50 62.25 63.14 64.38 66.59 68.66 68.83 68.72 70.26 70.56 72.06 72.68 74.88 75.13 74.62 74.46 74.98 74.87 74.87 75.70 76.18 77.23 76.98 72.25 69.43 75.59 77.02 74.29 72.01 73.90 78.35 78.71 78.94 78.32 76.74 76.80 77.03 76.75
50.23 49.80 51.68 51.95 50.21 46.03 44.86 49.78 59.07 57.92 57.31 58.06 62.60 64.32 65.35 65.98 67.18 68.83 69.97 70.92 71.88 72.02 72.10 73.17 74.55 74.99 75.06 74.98 74.92 75.34 74.94 75.59 76.70 75.74 74.97 75.16 78.05 78.10 78.15 78.71 77.34 76.69 77.76 79.02 78.15 77.47 76.61 77.03 76.88
53.78 51.33 51.65 49.03 48.38 49.82 49.36 49.81 59.91 60.69 61.30 63.55 60.44 59.46 61.00 66.47 66.65 68.91 69.36 71.45 70.26 71.59 72.67 72.60 73.94 73.82 75.08 75.52 75.38 75.29 75.48 76.04 75.25 75.60 76.36 76.89 77.10 78.50 78.45 77.28 78.17 77.48 77.85 78.68 77.25 76.41 75.08 75.27 75.45
MSLP
1007.69 1007.14 1006.33 1005.45 1006.11 1006.20 1006.14 1005.05 1002.70 1002.21 1002.19 1002.53 1002.90 1003.32 1004.74 1005.83 1006.69 1008.46 1009.18 1010.11 1010.73 1011.60 1012.38 1012.90 1013.41 1013.80 1013.91 1014.05 1014.29 1014.44 1014.61 1014.64 1014.81 1015.05 1015.33 1015.43 1015.59 1015.79 1015.84 1015.92 1015.98 1016.12 1016.21 1016.32 1016.26 1016.30 1016.45 1016.77 1016.57
1006.85 1006.33 1005.46 1005.46 1005.86 1007.12 1007.09 1006.13 1003.24 1002.52 1002.44 1002.97 1003.29 1004.42 1005.44 1006.56 1007.32 1008.29 1009.73 1010.40 1010.77 1011.81 1012.34 1013.00 1013.53 1013.91 1014.10 1014.26 1014.51 1014.62 1014.69 1014.84 1015.10 1015.25 1015.45 1015.56 1015.72 1015.88 1015.94 1015.99 1016.05 1016.20 1016.18 1016.36 1016.38 1016.25 1016.68 1016.67 1016.47
1007.24 1005.89 1005.69 1005.66 1006.34 1007.23 1007.33 1006.07 1003.66 1003.30 1002.79 1002.87 1003.37 1004.07 1005.32 1007.19 1008.00 1008.62 1009.57 1010.39 1010.99 1011.64 1012.48 1013.28 1013.69 1014.00 1014.34 1014.52 1014.66 1014.85 1015.01 1015.06 1015.27 1015.43 1015.56 1015.65 1015.79 1015.91 1015.87 1016.00 1016.12 1016.21 1016.38 1016.32 1016.24 1016.32 1016.54 1016.52 1016.27
1005.62 1005.46 1006.13 1006.29 1006.64 1007.08 1007.23 1005.82 1003.86 1003.61 1003.58 1003.65 1003.76 1005.11 1006.33 1007.32 1007.80 1008.86 1009.56 1009.95 1010.64 1011.25 1012.16 1013.37 1013.71 1014.04 1014.41 1014.64 1014.81 1015.02 1015.18 1015.30 1015.40 1015.51 1015.49 1015.64 1015.73 1015.84 1015.71 1016.00 1016.19 1016.17 1016.23 1016.29 1016.30 1016.36 1016.38 1016.33 1016.12
1004.93 1005.79 1007.17 1007.14 1006.52 1005.92 1005.72 1005.42 1005.20 1004.86 1004.76 1004.11 1004.28 1005.86 1006.83 1007.83 1008.41 1009.29 1009.98 1010.26 1010.70 1011.27 1012.29 1013.14 1013.68 1014.05 1014.48 1014.86 1014.99 1015.12 1015.33 1015.40 1015.48 1015.48 1015.52 1015.57 1015.73 1015.74 1015.85 1016.02 1016.16 1016.24 1016.29 1016.28 1016.18 1016.31 1016.26 1016.02 1015.93
1004.71 1006.42 1006.90 1006.93 1006.42 1005.91 1005.91 1005.48 1005.27 1005.46 1004.89 1004.40 1004.53 1005.80 1007.41 1008.38 1009.01 1009.41 1009.91 1010.81 1011.15 1011.82 1012.41 1013.20 1013.74 1014.19 1014.63 1014.99 1015.19 1015.36 1015.44 1015.42 1015.47 1015.54 1015.65 1015.53 1015.70 1015.74 1016.06 1016.10 1016.11 1016.11 1016.06 1015.99 1016.01 1016.25 1016.25 1016.09 1016.07
1004.20 1005.27 1006.45 1006.74 1006.60 1005.85 1005.68 1005.92 1005.62 1005.76 1004.75 1004.38 1004.70 1006.27 1008.24 1008.56 1009.30 1009.42 1010.03 1010.74 1011.20 1011.58 1012.46 1013.05 1013.66 1014.26 1014.72 1015.06 1015.26 1015.39 1015.51 1015.54 1015.64 1015.77 1015.72 1015.63 1015.70 1015.95 1016.17 1016.03 1015.89 1015.86 1015.88 1015.94 1016.07 1016.33 1016.18 1016.07 1016.10
1004.28 1006.54 1007.27 1006.08 1006.09 1005.92 1005.86 1005.86 1006.15 1005.80 1005.53 1004.68 1004.72 1005.91 1007.94 1009.06 1009.75 1010.15 1010.46 1010.76 1011.54 1012.41 1012.60 1012.50 1013.27 1014.00 1014.64 1015.04 1015.24 1015.44 1015.57 1015.67 1015.75 1015.77 1015.68 1015.54 1015.96 1016.04 1015.90 1015.95 1015.95 1015.96 1016.04 1016.18 1016.12 1016.19 1016.00 1015.93 1015.99
1003.70 1006.92 1007.26 1005.71 1005.52 1006.04 1005.80 1005.86 1006.09 1006.10 1005.81 1005.25 1005.07 1005.80 1007.73 1009.09 1010.02 1010.47 1011.00 1011.39 1012.06 1012.34 1012.76 1012.84 1012.88 1013.49 1014.15 1014.70 1015.06 1015.40 1015.63 1015.73 1015.74 1015.75 1015.60 1015.78 1016.07 1015.93 1015.92 1016.00 1016.05 1016.11 1016.23 1016.13 1015.89 1015.79 1016.04 1015.94 1015.84
1003.47 1005.79 1006.04 1004.99 1004.86 1005.42 1005.78 1005.68 1006.31 1006.38 1006.18 1005.88 1005.79 1006.70 1008.09 1009.13 1009.85 1010.51 1010.95 1011.36 1012.11 1012.35 1012.58 1012.90 1013.26 1013.28 1013.87 1014.57 1015.05 1015.38 1015.59 1015.69 1015.57 1015.76 1015.80 1015.80 1015.82 1015.84 1015.79 1015.54 1015.53 1015.63 1016.01 1015.94 1015.95 1015.88 1015.70 1015.63 1015.42
1003.53 1005.77 1005.17 1005.24 1005.38 1005.19 1005.75 1006.15 1006.93 1007.60 1007.85 1007.10 1006.12 1006.87 1008.00 1008.81 1009.48 1009.81 1010.55 1010.99 1011.50 1012.16 1012.74 1012.86 1013.30 1013.43 1013.89 1014.39 1014.92 1015.35 1015.47 1015.71 1015.65 1015.72 1015.84 1015.89 1015.64 1015.78 1015.36 1015.01 1015.51 1015.69 1015.63 1015.93 1016.07 1016.00 1016.03 1015.62 1015.00
1004.68 1006.59 1006.32 1005.70 1005.44 1005.82 1005.95 1006.95 1007.94 1008.54 1009.58 1008.19 1006.25 1006.60 1007.42 1008.23 1008.65 1009.25 1010.18 1011.22 1011.61 1012.35 1012.76 1013.10 1013.11 1013.56 1013.96 1014.46 1014.71 1015.20 1015.42 1015.75 1015.63 1015.64 1015.65 1015.71 1015.42 1015.36 1015.84 1015.53 1016.27 1016.85 1015.98 1016.31 1015.95 1015.90 1015.21 1014.46 1014.09
1004.57 1005.59 1004.80 1005.46 1005.56 1006.12 1006.34 1007.29 1008.08 1009.13 1008.99 1007.43 1006.42 1006.49 1006.80 1007.47 1007.99 1008.81 1009.42 1010.39 1011.17 1011.70 1012.30 1012.98 1013.22 1013.66 1013.90 1014.37 1014.64 1015.16 1015.35 1015.51 1015.32 1015.20 1015.50 1015.63 1015.57 1015.99 1016.12 1015.70 1016.74 1016.47 1016.52 1016.21 1015.64 1014.83 1014.60 1014.49 1014.32
1004.18 1004.57 1004.68 1005.02 1005.28 1005.78 1006.20 1006.90 1007.42 1008.94 1008.01 1007.71 1006.63 1006.52 1006.49 1006.91 1007.48 1008.14 1008.81 1009.67 1011.07 1011.59 1012.01 1012.86 1013.35 1013.72 1013.99 1014.60 1014.72 1014.81 1015.10 1015.23 1015.29 1015.13 1015.37 1015.57 1015.59 1015.34 1014.81 1015.28 1015.69 1016.11 1015.54 1014.90 1014.94 1015.08 1016.87 1015.91 1015.84
1003.64 1004.25 1005.13 1005.26 1005.72 1005.52 1005.91 1006.56 1006.72 1006.92 1006.88 1006.68 1006.44 1006.51 1006.28 1006.69 1007.40 1008.11 1008.72 1009.79 1010.52 1011.12 1011.79 1012.69 1013.33 1013.82 1014.36 1014.63 1014.83 1014.88 1014.81 1014.63 1014.98 1014.94 1015.24 1015.79 1015.81 1015.64 1015.60 1015.62 1014.87 1014.91 1013.99 1014.37 1014.77 1015.36 1016.33 1016.13 1016.45
1002.45 1002.73 1004.63 1005.63 1004.76 1004.75 1005.44 1005.89 1005.96 1006.54 1006.87 1006.66 1006.20 1006.36 1006.63 1006.68 1007.26 1007.99 1008.50 1009.19 1010.01 1010.84 1011.54 1012.43 1012.94 1013.91 1014.40 1014.80 1014.98 1014.91 1014.65 1014.34 1014.56 1014.65 1015.28 1015.88 1015.84 1015.50 1015.44 1016.15 1015.22 1013.77 1014.73 1014.89 1014.74 1015.42 1015.92 1016.72 1016.31
1002.53 1003.28 1003.55 1004.32 1003.90 1003.68 1004.76 1004.87 1005.33 1005.83 1006.36 1006.33 1006.08 1006.33 1006.22 1006.58 1007.15 1007.87 1008.24 1008.84 1009.86 1010.80 1011.49 1012.30 1013.00 1013.71 1014.39 1014.96 1014.97 1014.72 1014.28 1014.46 1014.46 1014.75 1014.92 1015.76 1015.75 1015.75 1016.45 1016.04 1014.71 1014.47 1015.45 1014.91 1015.20 1015.52 1014.93 1015.82 1016.14
1001.34 1001.67 1002.08 1002.28 1003.35 1003.10 1003.46 1003.82 1004.42 1005.25 1005.64 1005.54 1006.18 1006.54 1006.56 1006.71 1006.87 1007.61 1008.16 1008.55 1009.52 1010.63 1011.45 1012.24 1012.90 1013.69 1014.32 1014.89 1015.11 1014.71 1014.38 1014.33 1014.73 1015.05 1015.27 1015.83 1015.85 1015.65 1015.87 1015.37 1015.79 1014.73 1015.00 1015.06 1015.49 1015.14 1014.92 1015.66 1016.05
999.82 1000.21 1000.17 1000.53 1001.31 1001.97 1002.18 1002.52 1003.18 1003.88 1004.72 1005.30 1005.65 1005.51 1005.88 1006.21 1006.48 1007.46 1007.99 1008.38 1009.16 1010.20 1011.36 1012.18 1012.98 1013.75 1014.28 1014.89 1015.08 1014.99 1014.78 1014.43 1014.73 1015.10 1015.35 1015.49 1015.19 1014.56 1015.38 1015.06 1017.14 1015.15 1016.03 1015.36 1015.10 1014.34 1014.60 1014.72 1015.23
999.84 1000.03 999.63 999.60 1000.35 1001.01 1001.29 1001.47 1001.58 1002.89 1004.07 1004.72 1004.94 1005.10 1005.45 1005.42 1006.55 1007.29 1008.03 1008.12 1008.83 1009.89 1010.96 1011.80 1012.76 1013.54 1013.98 1014.66 1015.12 1015.09 1014.63 1014.53 1014.66 1014.84 1015.17 1015.07 1014.45 1013.98 1014.96 1015.80 1018.33 1018.97 1017.85 1016.36 1015.85 1014.54 1014.38 1014.44 1015.32
999.67 999.67 999.14 999.36 999.74 999.96 1000.75 1001.28 1002.60 1004.08 1003.49 1003.92 1004.87 1004.91 1004.49 1004.45 1005.51 1006.61 1007.27 1007.58 1008.27 1009.52 1010.54 1011.45 1012.40 1013.07 1013.64 1014.07 1014.82 1014.94 1014.77 1014.60 1014.64 1014.51 1014.74 1014.69 1014.70 1014.52 1013.96 1015.11 1016.95 1017.66 1017.16 1016.31 1015.54 1015.19 1014.44 1014.29 1015.87
999.10 998.88 998.90 999.31 999.69 999.39 1000.34 1001.01 1003.20 1004.97 1004.87 1004.38 1003.31 1004.17 1003.51 1003.89 1004.51 1005.45 1006.61 1007.20 1007.69 1008.84 1010.07 1011.00 1012.05 1012.84 1013.12 1013.90 1014.35 1014.79 1014.96 1014.97 1014.45 1014.72 1014.33 1014.71 1014.55 1014.66 1014.14 1014.30 1015.42 1015.86 1016.30 1015.70 1015.40 1015.20 1014.32 1014.48 1015.25
999.19 998.91 999.47 999.73 999.74 999.58 999.70 1000.84 1002.00 1003.05 1003.57 1002.00 1000.49 1001.91 1002.42 1003.00 1003.60 1004.55 1005.67 1006.29 1006.93 1008.08 1009.33 1010.48 1011.70 1012.57 1012.85 1013.45 1014.06 1014.39 1014.70 1014.59 1014.42 1014.19 1013.80 1014.34 1014.56 1014.49 1014.26 1013.91 1014.16 1015.17 1015.48 1015.36 1015.38 1015.08 1014.21 1014.92 1015.10
999.14 998.97 999.34 999.62 999.52 999.24 998.61 999.94 999.91 1001.15 999.88 999.21 999.52 1000.16 1000.84 1001.63 1002.11 1003.42 1004.79 1005.69 1006.31 1007.40 1008.78 1010.02 1011.25 1012.21 1012.68 1013.21 1013.91 1014.10 1014.16 1014.39 1014.22 1013.83 1013.79 1014.03 1014.22 1014.34 1014.00 1013.80 1013.76 1013.93 1014.46 1014.64 1014.53 1014.50 1014.91 1015.15 1015.19
999.01 999.00 999.06 998.90 998.70 998.31 999.15 999.56 997.86 998.68 998.61 997.87 997.67 998.29 999.19 1000.15 1001.34 1002.79 1004.25 1005.42 1006.12 1006.98 1008.11 1009.57 1010.74 1011.76 1012.41 1012.87 1013.51 1013.96 1014.23 1014.53 1014.65 1014.74 1014.48 1013.84 1013.48 1013.29 1013.32 1013.56 1013.67 1013.73 1013.93 1013.96 1014.22 1014.84 1015.34 1015.37 1015.18
998.28 998.64 998.44 998.04 997.85 998.28 998.39 998.96 997.83 996.79 996.65 996.60 996.92 997.10 998.02 998.98 1000.31 1002.37 1003.74 1004.90 1005.65 1006.72 1007.59 1008.96 1010.33 1011.31 1012.05 1012.64 1013.01 1013.34 1013.95 1014.52 1014.34 1014.27 1013.99 1013.42 1013.05 1013.12 1012.86 1013.41 1013.58 1013.56 1013.64 1014.14 1014.52 1015.13 1015.37 1015.19 1014.96
998.13 997.86 998.36 998.00 997.39 996.90 996.32 996.05 995.68 995.82 996.12 996.45 997.00 997.20 997.77 998.30 999.98 1001.69 1002.95 1004.13 1005.30 1006.35 1007.28 1008.61 1009.84 1010.80 1011.48 1012.01 1012.69 1012.92 1013.14 1013.75 1013.88 1014.06 1013.99 1013.52 1013.29 1013.69 1014.04 1014.33 1014.25 1014.18 1014.03 1014.30 1014.64 1015.12 1015.24 1015.11 1015.18
997.82 997.76 997.63 997.37 997.27 996.78 996.13 996.06 996.86 997.23 997.44 996.82 997.09 997.82 998.31 998.47 999.56 1000.68 1001.94 1003.40 1004.86 1005.96 1007.09 1008.29 1009.39 1010.19 1010.85 1011.36 1012.15 1012.59 1012.84 1012.99 1013.49 1013.88 1013.62 1013.32 1013.54 1013.84 1014.53 1013.85 1014.27 1014.35 1014.20 1014.17 1014.44 1014.72 1015.01 1015.15 1015.23
997.13 997.37 997.31 997.08 996.99 996.64 996.29 996.54 997.45 997.73 997.37 998.59 997.60 998.44 998.39 998.70 999.58 1000.34 1001.55 1003.23 1004.42 1005.48 1006.52 1007.63 1008.99 1009.82 1010.45 1010.84 1011.40 1011.83 1012.42 1012.70 1012.98 1013.56 1013.66 1013.52 1013.56 1013.92 1014.33 1013.80 1014.01 1014.39 1014.06 1013.91 1014.29 1014.71 1014.86 1015.12 1015.36
996.05 996.22 996.65 996.76 996.78 996.67 996.28 995.57 995.93 996.77 996.91 996.79 997.88 1000.93 999.18 998.34 999.25 1000.21 1001.61 1002.71 1004.14 1005.43 1006.29 1007.18 1008.26 1009.14 1009.88 1010.37 1010.94 1011.45 1011.92 1012.16 1012.35 1012.85 1013.08 1013.37 1013.24 1013.30 1013.57 1014.07 1014.19 1014.08 1014.00 1014.12 1014.37 1014.50 1014.64 1014.75 1015.14
Wind_Speed
10 13 10 7 3 3 3 12 7 15 11 14 11 16 17 12 6 10 15 17 20 15 14 13 12 12 13 11 12 13 13 13 12 11 11 11 12 10 6 9 9 7 8 9 8 6 6 7 6
11 14 7 5 2 2 2 12 16 14 14 10 11 17 21 15 20 19 14 17 17 14 11 12 12 11 11 11 11 11 13 13 11 11 11 11 11 9 8 8 7 7 6 7 7 8 7 7 5
14 13 5 2 2 2 5 18 10 7 8 7 8 15 10 11 13 6 17 18 17 14 13 12 13 12 11 10 11 10 11 12 11 11 12 11 11 6 9 8 8 8 7 8 7 7 7 7 6
7 2 6 6 4 1 9 16 11 11 12 8 6 12 16 14 7 11 18 19 19 17 17 14 14 13 12 10 11 10 10 10 11 11 11 11 10 7 9 8 8 7 8 6 5 6 6 6 6
7 2 4 4 5 8 8 7 10 7 6 12 9 18 18 16 13 20 14 14 13 14 16 15 14 12 11 10 10 10 10 9 10 11 10 12 8 6 8 8 7 6 6 5 5 5 6 5 4
4 5 4 6 3 2 5 7 6 6 9 7 7 17 12 12 11 19 17 6 13 11 12 13 14 12 11 10 10 9 9 10 10 11 12 12 9 9 4 4 5 5 6 6 6 6 5 4 3
5 4 8 3 1 2 2 1 6 4 9 11 1 14 12 14 11 8 9 12 18 15 13 13 12 11 11 10 10 10 9 9 11 12 13 11 9 7 2 4 5 5 5 6 6 7 7 5 4
4 7 10 4 6 3 3 6 6 3 4 4 5 2 13 17 11 9 4 11 15 5 11 10 12 11 9 9 11 11 10 10 11 13 13 10 9 8 6 6 6 4 5 5 5 7 7 6 7
5 6 5 3 7 3 6 8 6 1 7 6 5 17 19 20 14 11 3 7 9 6 9 5 13 11 7 9 9 10 11 11 11 11 9 8 4 6 7 5 7 6 5 6 6 8 9 9 10
2 5 13 11 7 2 5 6 5 5 3 5 14 20 21 17 14 12 14 12 5 1 4 5 2 8 12 7 9 9 8 7 6 5 4 1 4 4 2 9 11 9 7 9 8 10 10 10 7
12 3 16 7 8 5 7 4 7 6 6 14 15 12 25 17 13 15 14 8 14 10 4 5 5 5 7 7 5 3 4 3 4 4 2 2 4 4 6 5 4 1 6 5 8 8 6 9 6
11 9 26 6 6 4 3 9 15 10 5 19 11 13 20 16 17 13 15 10 13 9 6 2 3 6 5 5 5 6 5 5 4 4 4 2 3 3 2 1 5 2 6 9 7 4 8 7 7
12 8 13 6 1 5 7 6 9 6 5 18 12 9 11 13 11 8 22 19 12 11 12 7 7 6 6 6 6 6 6 5 5 5 5 4 4 3 8 4 5 3 4 8 7 5 6 7 8
5 6 8 14 4 6 5 9 11 14 20 20 11 11 11 15 14 12 12 13 16 10 10 11 7 6 5 5 5 5 7 7 5 4 5 6 3 5 5 7 7 4 9 3 4 3 11 5 8
11 13 17 5 11 4 6 5 5 12 16 8 13 9 8 11 11 8 10 14 10 9 14 11 8 8 6 6 5 3 6 8 8 7 6 4 4 6 2 5 5 8 4 5 3 2 8 6 9
14 14 7 8 9 5 12 3 9 12 9 9 11 10 10 13 14 12 11 13 12 10 7 11 11 10 9 7 5 3 5 6 5 6 5 6 4 7 3 3 7 5 2 2 2 4 5 8 4
2 4 0 8 7 8 10 2 10 15 15 15 13 3 8 9 14 11 12 12 16 12 8 13 13 11 9 8 3 4 2 4 1 1 2 3 4 3 10 6 8 6 7 7 2 6 3 9 6
6 13 15 12 12 9 9 6 14 16 18 15 9 13 10 11 12 12 11 13 16 13 8 14 8 10 9 7 3 2 4 4 5 2 2 4 4 6 11 8 2 6 5 3 6 4 4 12 7
9 9 13 9 11 4 9 14 18 19 14 14 14 18 12 18 16 6 5 12 16 14 10 15 10 12 9 6 3 4 5 4 6 4 3 5 8 9 7 7 10 12 11 8 4 3 4 4 5
9 14 16 1 4 7 12 13 8 18 18 17 18 15 18 15 19 18 16 14 16 15 13 11 13 11 9 7 4 2 3 2 3 4 6 7 5 5 3 13 7 8 7 7 4 4 2 5 6
10 14 17 3 7 6 5 13 6 14 11 18 17 19 20 13 21 19 16 15 16 16 15 12 12 11 11 8 7 2 1 4 3 3 5 2 1 6 4 10 8 13 3 6 3 5 4 4 9
14 13 9 9 12 14 10 10 7 4 18 19 21 21 19 13 14 17 19 17 17 17 16 14 12 11 8 10 7 8 4 1 4 7 4 6 7 6 6 5 6 3 8 8 1 2 4 4 1
14 15 1 14 14 18 13 9 9 17 15 32 25 23 19 20 21 20 18 20 17 19 17 16 14 12 9 8 6 6 9 6 10 11 8 5 5 3 5 3 2 1 0 3 3 3 5 4 4
18 16 9 16 14 14 14 11 11 8 5 15 13 23 22 20 21 22 21 13 14 17 17 17 15 13 10 9 8 6 5 6 4 5 4 6 4 7 7 4 2 1 3 3 2 5 6 4 4
16 13 10 13 12 12 4 14 4 15 16 18 17 20 23 21 18 16 17 12 8 17 17 17 17 13 11 11 10 10 8 3 4 3 7 7 7 7 9 6 6 4 3 3 3 2 0 4 2
17 18 12 17 8 6 18 12 12 14 15 8 4 6 17 20 19 17 15 18 13 15 15 18 17 15 12 11 11 9 8 6 6 13 8 4 1 3 8 6 4 4 1 4 3 1 4 5 3
19 15 16 22 20 15 12 5 8 8 6 11 8 8 5 16 22 22 18 17 16 14 14 17 17 15 14 13 9 8 7 8 7 6 2 5 4 5 8 3 2 3 5 4 3 3 4 3 1
18 16 15 11 14 14 11 4 8 11 11 7 11 9 6 9 22 22 21 19 17 16 14 18 17 17 15 13 12 10 9 8 5 3 3 9 8 4 3 5 11 5 4 5 4 4 5 5 3
13 17 19 17 11 12 11 2 6 8 11 16 12 5 11 9 11 13 17 17 16 15 15 14 17 15 14 13 14 11 11 11 8 7 8 10 5 5 2 3 4 6 5 3 3 4 7 2 3
14 18 20 13 14 13 13 13 14 13 14 11 22 20 21 10 11 12 19 19 17 16 13 13 16 14 13 11 7 11 10 8 9 9 9 9 8 6 5 5 5 5 5 3 5 5 8 4 7
Wind_Direction
236 234 234 277 265 318 346 314 52 72 59 62 51 74 75 87 144 119 110 97 113 128 129 138 128 123 120 115 116 117 114 107 105 105 108 111 110 111 103 108 114 129 137 146 154 154 153 152 158
260 274 275 261 212 46 316 285 79 68 82 100 49 83 82 64 84 109 126 132 121 121 145 133 127 120 115 116 121 114 113 110 116 118 116 112 116 105 102 110 116 127 134 125 137 141 142 141 154
250 261 280 246 45 265 121 269 89 64 54 28 97 51 66 92 97 96 130 143 133 147 133 126 137 135 127 124 118 113 114 117 115 113 116 121 117 97 108 111 120 115 119 126 137 135 137 138 151
244 259 3 318 294 91 152 253 41 55 40 45 43 93 74 83 86 117 144 156 152 148 129 136 141 140 137 137 129 123 122 123 125 126 123 121 121 112 107 116 117 123 120 117 126 142 153 152 162
244 137 196 250 258 104 92 75 50 33 308 54 68 93 79 85 108 121 128 136 128 121 130 139 134 134 133 132 132 130 129 127 129 122 126 123 119 111 111 122 119 121 125 137 150 161 169 170 177
221 131 317 315 166 49 26 351 71 25 300 137 101 110 96 110 119 141 157 112 126 132 147 140 138 143 142 144 133 134 132 123 115 128 128 136 133 104 102 138 144 144 145 160 171 185 189 171 182
332 260 328 63 276 118 191 200 103 328 302 66 85 108 118 118 136 116 123 106 141 153 154 141 150 152 155 149 144 141 135 128 122 131 137 138 124 108 199 201 157 150 156 158 182 191 186 189 224
270 56 334 273 13 51 181 164 336 112 311 65 10 139 143 119 121 108 61 122 108 95 150 170 144 152 161 158 154 147 140 133 136 141 143 143 155 172 197 203 168 169 160 159 163 177 176 197 224
221 110 229 298 4 145 166 183 179 0 255 50 46 95 125 124 142 126 78 110 122 144 129 196 152 156 166 153 156 142 142 132 136 146 153 162 179 205 186 184 168 184 175 174 191 194 192 202 213
28 64 279 12 45 39 196 207 163 194 199 128 97 107 123 132 150 158 165 162 132 176 183 141 123 157 150 161 153 154 149 159 142 145 174 228 225 242 238 201 186 189 203 210 206 201 201 208 207
287 38 344 18 41 337 147 201 166 44 23 307 123 137 137 151 158 170 166 187 150 170 164 149 138 143 149 154 155 162 159 92 124 145 178 267 247 227 234 182 176 188 219 228 220 218 231 226 236
76 20 278 2 90 47 121 127 75 85 196 275 127 147 136 156 175 177 151 156 145 134 155 195 131 125 191 156 168 158 130 132 171 188 220 256 259 266 354 111 74 49 239 251 236 212 231 238 76
65 242 234 97 158 127 177 78 125 136 193 273 128 154 173 154 135 182 157 155 134 151 159 152 137 145 159 165 154 162 130 165 184 173 188 223 261 242 228 149 124 200 231 242 238 192 90 19 308
173 233 333 25 95 143 142 139 120 194 214 242 154 174 174 155 148 116 121 114 141 144 139 125 149 137 127 154 160 156 154 181 181 223 204 235 270 282 302 48 179 241 212 143 246 96 95 239 275
202 223 88 354 300 190 139 200 240 157 183 161 164 187 148 140 127 136 138 135 163 160 132 139 123 127 148 146 150 166 171 169 183 210 180 214 248 263 33 236 212 228 200 155 203 11 105 174 259
242 239 112 234 226 180 203 261 201 170 175 184 187 158 204 145 150 161 153 149 140 127 136 139 124 133 146 139 144 182 249 172 207 166 176 196 246 269 331 338 253 196 193 101 276 143 181 178 226
15 248 271 157 254 167 200 196 209 181 200 203 203 203 165 160 145 155 156 158 126 134 144 131 131 135 138 130 143 165 142 138 244 109 222 118 261 67 352 298 296 26 358 82 275 268 227 95 28
232 256 216 146 195 211 200 230 180 190 206 215 143 233 174 173 163 151 180 155 144 137 148 122 128 131 134 135 156 193 183 190 178 197 222 196 230 148 184 271 1 45 347 239 214 68 61 116 150
283 316 287 130 157 223 254 221 195 180 204 200 203 205 200 188 171 100 214 162 149 142 155 128 131 135 137 154 132 203 190 224 184 176 212 224 232 228 160 24 42 43 288 297 350 129 87 92 155
321 286 280 67 158 228 259 262 212 177 192 196 203 201 210 208 147 164 200 173 157 150 152 144 140 157 149 157 184 175 199 199 234 188 201 226 248 352 44 91 40 272 234 280 339 19 30 102 79
258 268 282 322 313 287 268 274 68 314 190 187 204 219 208 203 168 175 165 199 162 152 154 158 154 170 168 167 155 198 59 4 1 261 187 218 299 271 286 116 164 244 282 298 318 355 53 55 110
265 281 315 322 293 285 207 274 135 77 309 281 189 208 218 199 171 173 175 196 171 157 159 156 160 177 188 155 164 167 131 71 278 256 225 174 214 231 227 182 179 120 158 219 5 31 23 29 344
265 276 257 290 276 276 237 243 157 155 185 250 188 196 200 204 178 184 185 180 180 159 158 156 164 175 195 165 174 174 176 174 217 252 181 152 183 40 287 264 173 34 318 46 4 20 32 14 345
273 258 302 272 259 262 293 247 142 174 195 219 202 188 191 209 187 176 182 174 168 157 159 154 165 179 202 171 163 211 244 246 335 350 154 182 185 178 214 253 164 317 332 329 47 13 25 359 346
229 253 250 253 237 260 56 6 210 201 213 217 194 191 183 190 189 157 167 155 167 157 161 153 162 176 191 182 182 200 210 291 165 249 259 232 196 202 192 194 171 173 223 319 11 61 154 282 290
235 233 249 263 304 288 152 213 135 197 174 156 143 180 178 185 165 172 177 163 172 163 164 154 161 168 185 184 199 207 204 180 151 243 255 277 11 8 157 168 180 182 181 210 237 169 247 249 276
253 232 259 273 278 277 272 186 188 110 69 145 169 169 171 177 157 180 189 160 166 164 157 151 161 168 181 187 187 203 209 215 211 244 329 308 317 51 31 4 213 252 176 200 266 226 257 231 171
238 261 239 237 272 280 273 63 82 34 2 283 164 173 169 165 167 181 169 169 166 160 164 151 162 171 179 191 181 195 206 223 216 233 145 289 289 96 146 55 285 215 232 199 220 265 254 227 247
212 239 258 271 274 294 293 107 129 143 101 306 222 95 148 163 174 174 151 141 158 170 165 166 165 170 184 201 181 188 196 213 207 199 200 218 246 258 195 200 293 246 229 240 166 262 294 277 257
234 237 225 246 255 257 284 312 149 185 191 202 115 138 275 148 169 174 152 155 160 175 168 181 169 171 187 189 186 184 199 214 207 207 222 206 217 226 227 221 237 247 278 266 242 227 263 250 215